Regional Weather Roundup
Issued by NWS

Home | Current Version | Previous Version | Graphics & Text | Print | Product List | Glossary On
Versions: 1 2 3 4 5 6 7 8 9 10 11 12 13 14 15 16 17 18 19 20 21 22 23 24 25 26 27
000
ASUS45 KSLC 190710
RWRUT

UTAH REGIONAL WEATHER ROUNDUP
NATIONAL WEATHER SERVICE SALT LAKE CITY UT
1200 AM MST MON FEB 19 2018

UTZ001>011-023>025-190800-

NORTHERN UTAH

CITY           SKY/WX    TMP DP  RH WIND       PRES   REMARKS
BRIGHAM CITY   CLOUDY    28  26  91 CALM      29.50F
HILL AFB       CLOUDY    28  27  93 N7        29.47F WCI  21
LOGAN          CLOUDY    28  25  88 N3        29.49F FOG
OGDEN          CLOUDY    29  27  92 NW7       29.47F WCI  22
SALT LAKE CITY LGT SNOW  33  30  88 NW15      29.49R FOG     WCI  23
TOOELE VALLEY  LGT SNOW  30  30 100 N9        29.51R WCI  22
WENDOVER       CLOUDY    29  23  78 W13       29.55R WCI  19
HEBER CITY     LGT SNOW  28  28 100 E3        29.40F
WEST JORDAN    CLOUDY    28  28 100 NW14      29.48S WCI  17

$$

UTZ011>015-024>027-190800-

CENTRAL/NORTHEAST UTAH

CITY           SKY/WX    TMP DP  RH WIND       PRES   REMARKS
PROVO AIRPORT  CLOUDY    30  29  96 NW25      29.46F WCI  16
MOAB/CANYONLAN CLEAR    N/A N/A N/A S14       29.41S
DELTA          CLOUDY    30  30 100 NW20G25   29.46R WCI  18
PRICE          PTCLDY    40  20  44 S16G23    29.36S WCI  31
RICHFIELD      PTCLDY    43  19  39 SW16      29.37F
ROOSEVELT      MOCLDY    32  18  55 W9        29.37R WCI  24
VERNAL         MOCLDY    35  18  49 SE3       29.35S

$$

UTZ013>016-019>022-027-190800-

SOUTHERN UTAH

CITY           SKY/WX    TMP DP  RH WIND       PRES   REMARKS
BRYCE CANYON   LGT RAIN  36  23  59 SW37G49   29.47F WCI  22
CEDAR CITY     PTCLDY    44  25  47 S32G46    29.42F
MILFORD        CLEAR     39  22  50 S17G25    29.39R WCI  30
ST GEORGE      CLOUDY    57  30  35 SW45G59   29.40F HAZE
HANKSVILLE     CLOUDY    52  23  32 S13G23    29.45F
KANAB          MOCLDY    48  28  46 S17G28    29.58F
BLANDING         N/A     42  28  56 S21G29    29.65F

$$

REGIONAL REPORTS     COLORADO/ARIZONA

CITY           SKY/WX    TMP DP  RH WIND       PRES   REMARKS
CRAIG, CO      PTCLDY    30  23  75 NE6       29.42S WCI  24
GRAND JUNCTION MOCLDY    51  24  34 SW14G22   29.42F
RIFLE, CO      MOCLDY    50  22  33 SW25G33   29.42F
MONTROSE, CO   MOCLDY    49  22  34 SW24G39   29.53F
CORTEZ, CO     PTCLDY    44  27  51 S22G30    29.66R
COLORADO CITY  CLOUDY    46  32  57 SE8       29.57F
PAGE, AZ       PTCLDY    53  25  33 S16G25    29.52F
GRAND CANYON   CLOUDY    39  30  70 SW15G30   29.71R WCI  31
KINGMAN, AZ    CLEAR     52  30  43 S21G31    29.66F
FLAGSTAFF, AZ  CLOUDY    36  30  79 SW28G41   29.70F WCI  23

$$

REGIONAL REPORTS    NEVADA/IDAHO/WYOMING

CITY           SKY/WX    TMP DP  RH WIND       PRES   REMARKS
LAS VEGAS, NV  CLEAR     57  26  30 SW10G23   29.54R
ELY, NY        CLOUDY    28  16  60 NW6       29.46F WCI  22
ELKO, NV       LGT SNOW  26  20  77 NW3       29.54S
POCATELLO, ID  CLOUDY    27  19  72 SW15      29.54S WCI  15
BURLEY, ID     MOCLDY    23  16  74 SW7       29.56R WCI  15
EVANSTON, WY   LGT SNOW  20  18  92 NE7       29.41F VSB 3/4 WCI  11
ROCK SPRINGS,  LGT SNOW  11   7  84 NE16      29.51R VSB 1   WCI  -6

$$




USA.gov is the U.S. government's official web portal to all federal, state and local government web resources and services.